Location: Caltech
(34.1382°N, 118.1253°W)
Time: 01:07:49
(UTC-07:00)

SL-08 RB Rocket - Visible Passes

Search period start: 27 August 2016 00:00
Search period end: 06 September 2016 00:00
Orbit: 648 x 685 km, 98.0° (Epoch: 26 August)

Date Brightness Start Highest point End Pass type
(mag) Time Alt. Az. Time Alt. Az. Time Alt. Az.
27 Aug 6.1 21:11:50 11° NE 21:11:50 11° NE 21:12:13 10° NE visible
27 Aug 6.2 22:49:59 19° NNW 22:49:59 19° NNW 22:51:19 10° NNW visible
28 Aug 5.8 21:44:03 18° NNE 21:44:03 18° NNE 21:45:32 10° NNE visible
28 Aug 6.8 23:22:12 11° NW 23:22:12 11° NW 23:22:23 10° NW visible
29 Aug 5.9 22:16:16 21° N 22:16:16 21° N 22:17:48 10° N visible
30 Aug 6.4 22:48:28 17° NNW 22:48:28 17° NNW 22:49:30 10° NNW visible
31 Aug 6.0 21:42:32 15° NNE 21:42:32 15° NNE 21:43:39 10° NNE visible
01 Sep 6.1 22:14:46 18° N 22:14:46 18° N 22:15:56 10° N visible
02 Sep 6.5 22:46:59 14° NNW 22:46:59 14° NNW 22:47:40 10° NNW visible
03 Sep 6.1 21:41:03 13° NNE 21:41:03 13° NNE 21:41:45 10° NNE visible
04 Sep 6.3 22:13:16 15° N 22:13:16 15° N 22:14:04 10° N visible
05 Sep 6.7 22:45:29 12° NNW 22:45:29 12° NNW 22:45:50 10° NNW visible
